Powrót do katalogu

CZ-6A DEB

AktywnyPO
NORAD 54614·DEBRIS·🇨🇳 China

Wystrzelony Nov 11, 2022 z Taiyuan Satellite Launch Center

Loading…

Następne Przeloty (najbliższe 24 godziny)

TLE

ŚwieżeSource: Space-Track

Epoka: Sep 14, 2026, 05:29 UTC

1 54614U 22151NQ  26257.22895812  .00075481  00000-0  33767-2 0  9993
2 54614  98.6289 359.2342 0028462 273.0618  86.7357 15.20621523133304

Śledź CZ-6A DEB w czasie rzeczywistym z AllMySat

Download on the App Store